Clintonville, WI

10:18 AM CST on December 16, 2017 (GMT -0600)
Clintonville Municipal

Weather History for KCLI - March, 2013

Change the Weather History Date:

Tuesday, March 5, 2013

  Actual Average Record
Temperature  
Mean Temperature 28 °F -  
Max Temperature 32 °F 37 °F 52 °F (1974)
Min Temperature 23 °F 16 °F -10 °F (1978)
Degree Days  
Heating Degree Days 38    
Moisture  
Dew Point 19 °F    
Average Humidity 70    
Maximum Humidity 80    
Minimum Humidity 55    
Precipitation  
Precipitation 0.00 in - - ()
Sea Level Pressure  
Sea Level Pressure 30.04 in    
Wind  
Wind Speed 9 mph (NE)    
Max Wind Speed 15 mph    
Max Gust Speed 24 mph    
Visibility 10 miles    
Events Snow    
Averages and records for this station are not official NWS values.
T = Trace of Precipitation, MM = Missing Value Source: NWS Daily Summary

Daily Weather History Graph

Daily Weather History Graph

Search for Another Location

Airport or City:

Trip Planner

Search our weather history database for the weather conditions in past years. The results will help you decide how hot, cold, wet, or windy it might be!

Date:

Astronomy

Mar. 05, 2013 Rise Set
Actual Time 6:24 AM CST 5:48 PM CST
Civil Twilight 5:55 AM CST 6:17 PM CST
Nautical Twilight 5:22 AM CST 6:51 PM CST
Astronomical Twilight 4:48 AM CST 7:25 PM CST
Moon 1:47 AM CST (3/5) 11:16 AM CST (3/5)
Length of Visible Light 12h 21m
Length of Day
11h 23m
Last Quarter, 40% of the Moon is Illuminated
Mar 5
Last Quarter
Mar 11
New
Mar 19
First Quarter
Mar 27
Full
Apr 2
Last Quarter

Hourly Weather History & Observations

Time (CST) Temp. Windchill Dew Point Humidity Pressure Visibility Wind Dir Wind Speed Gust Speed Precip Events Conditions
12:15 AM 26.6 °F 20.0 °F 17.6 °F 69% 30.09 in 10.0 mi ENE 5.8 mph - N/A   Overcast
12:35 AM 26.6 °F 18.2 °F 17.6 °F 69% 30.09 in 10.0 mi ENE 8.1 mph - N/A   Overcast
12:55 AM 26.6 °F 16.2 °F 17.6 °F 69% 30.09 in 10.0 mi ENE 11.5 mph - N/A   Overcast
1:15 AM 26.6 °F 16.8 °F 17.6 °F 69% 30.09 in 10.0 mi ENE 10.4 mph 18.4 mph N/A   Overcast
1:35 AM 24.8 °F 15.3 °F 17.6 °F 74% 30.08 in 10.0 mi ENE 9.2 mph - N/A   Overcast
1:55 AM 24.8 °F 15.3 °F 17.6 °F 74% 30.07 in 10.0 mi NE 9.2 mph - N/A   Overcast
2:15 AM 24.8 °F 15.3 °F 15.8 °F 69% 30.07 in 10.0 mi NE 9.2 mph - N/A   Overcast
2:35 AM 24.8 °F 16.1 °F 15.8 °F 69% 30.07 in 10.0 mi NE 8.1 mph - N/A   Overcast
2:55 AM 23.0 °F 14.7 °F 17.6 °F 80% 30.06 in 10.0 mi NE 6.9 mph - N/A   Overcast
3:15 AM 23.0 °F 13.9 °F 17.6 °F 80% 30.06 in 10.0 mi NNE 8.1 mph - N/A   Overcast
3:35 AM 23.0 °F 13.1 °F 17.6 °F 80% 30.05 in 10.0 mi NE 9.2 mph - N/A   Overcast
3:55 AM 23.0 °F 13.9 °F 17.6 °F 80% 30.05 in 10.0 mi NE 8.1 mph - N/A   Overcast
4:15 AM 23.0 °F 13.9 °F 17.6 °F 80% 30.04 in 10.0 mi NE 8.1 mph - N/A   Overcast
4:35 AM 24.8 °F 16.1 °F 17.6 °F 74% 30.03 in 10.0 mi NE 8.1 mph - N/A   Overcast
4:55 AM 24.8 °F 17.9 °F 17.6 °F 74% 30.03 in 10.0 mi ENE 5.8 mph - N/A   Overcast
5:15 AM 24.8 °F 16.1 °F 17.6 °F 74% 30.02 in 10.0 mi ENE 8.1 mph - N/A   Overcast
5:35 AM 24.8 °F 16.1 °F 19.4 °F 80% 30.02 in 10.0 mi ENE 8.1 mph - N/A   Overcast
5:55 AM 24.8 °F 14.0 °F 17.6 °F 74% 30.01 in 10.0 mi ENE 11.5 mph - N/A   Overcast
6:15 AM 24.8 °F 16.1 °F 17.6 °F 74% 30.01 in 10.0 mi ENE 8.1 mph - N/A   Overcast
6:55 AM 24.8 °F 14.0 °F 19.4 °F 80% 30.01 in 10.0 mi ENE 11.5 mph - N/A   Overcast
7:15 AM 24.8 °F 14.6 °F 19.4 °F 80% 30.01 in 10.0 mi ENE 10.4 mph - N/A   Overcast
7:35 AM 24.8 °F 14.6 °F 17.6 °F 74% 30.01 in 10.0 mi ENE 10.4 mph - N/A   Overcast
7:55 AM 26.6 °F 18.2 °F 19.4 °F 74% 30.00 in 10.0 mi NE 8.1 mph - N/A   Overcast
8:15 AM 24.8 °F 14.6 °F 19.4 °F 80% 30.01 in 10.0 mi NE 10.4 mph - N/A   Overcast
8:35 AM 26.6 °F 20.0 °F 19.4 °F 74% 30.02 in 10.0 mi NE 5.8 mph - N/A   Overcast
8:55 AM 26.6 °F 22.6 °F 19.4 °F 74% 30.03 in 10.0 mi NNE 3.5 mph - N/A   Overcast
9:15 AM 26.6 °F 20.0 °F 19.4 °F 74% 30.03 in 10.0 mi NE 5.8 mph - N/A   Overcast
9:35 AM 26.6 °F 19.1 °F 19.4 °F 74% 30.04 in 10.0 mi NE 6.9 mph - N/A   Overcast
9:55 AM 28.4 °F 20.4 °F 19.4 °F 69% 30.04 in 10.0 mi NNE 8.1 mph - N/A   Overcast
10:15 AM 28.4 °F 19.7 °F 19.4 °F 69% 30.04 in 10.0 mi NE 9.2 mph - N/A   Overcast
10:35 AM 28.4 °F 19.7 °F 19.4 °F 69% 30.03 in 10.0 mi NE 9.2 mph - N/A   Overcast
10:55 AM 28.4 °F 19.7 °F 19.4 °F 69% 30.03 in 10.0 mi NE 9.2 mph - N/A   Overcast
11:15 AM 28.4 °F 20.4 °F 19.4 °F 69% 30.03 in 10.0 mi NE 8.1 mph - N/A   Overcast
11:35 AM 30.2 °F 21.9 °F 21.2 °F 69% 30.03 in 10.0 mi ENE 9.2 mph - N/A   Overcast
11:55 AM 30.2 °F 21.3 °F 21.2 °F 69% 30.01 in 10.0 mi NE 10.4 mph - N/A   Overcast
12:15 PM 30.2 °F 21.9 °F 19.4 °F 64% 30.00 in 10.0 mi NE 9.2 mph - N/A   Overcast
12:35 PM 30.2 °F 20.8 °F 19.4 °F 64% 29.99 in 10.0 mi NE 11.5 mph 17.3 mph N/A   Overcast
12:55 PM 30.2 °F 20.8 °F 21.2 °F 69% 29.99 in 10.0 mi NE 11.5 mph - N/A   Overcast
1:15 PM 30.2 °F 19.8 °F 21.2 °F 69% 29.98 in 10.0 mi NE 13.8 mph 19.6 mph N/A   Overcast
1:35 PM 32.0 °F 22.1 °F 21.2 °F 64% 29.97 in 10.0 mi NE 13.8 mph 20.7 mph N/A   Overcast
1:55 PM 30.2 °F 19.3 °F 21.2 °F 69% 29.97 in 10.0 mi NE 15.0 mph 23.0 mph N/A   Overcast
2:15 PM 30.2 °F 20.8 °F 21.2 °F 69% 29.97 in 10.0 mi NE 11.5 mph 21.9 mph N/A   Overcast
2:35 PM 32.0 °F 22.5 °F 21.2 °F 64% 29.97 in 10.0 mi NE 12.7 mph 21.9 mph N/A   Overcast
2:55 PM 32.0 °F 23.6 °F 21.2 °F 64% 29.98 in 10.0 mi NE 10.4 mph - N/A   Overcast
3:15 PM 30.2 °F 20.2 °F 23.0 °F 75% 29.98 in 5.0 mi NE 12.7 mph 17.3 mph N/A Snow Light Snow
3:35 PM 30.2 °F 21.3 °F 21.2 °F 69% 29.99 in 10.0 mi NE 10.4 mph - N/A   Overcast
3:55 PM 30.2 °F 21.3 °F 19.4 °F 64% 30.00 in 7.0 mi NE 10.4 mph - N/A   Overcast
4:15 PM 30.2 °F 20.8 °F 19.4 °F 64% 30.00 in 10.0 mi NE 11.5 mph - N/A   Overcast
4:35 PM 32.0 °F 24.8 °F 19.4 °F 60% 30.01 in 10.0 mi NNE 8.1 mph - N/A   Overcast
4:55 PM 32.0 °F 25.6 °F 17.6 °F 55% 30.01 in 10.0 mi NNE 6.9 mph - N/A   Overcast
5:15 PM 32.0 °F 24.8 °F 17.6 °F 55% 30.01 in 10.0 mi NNE 8.1 mph - N/A   Overcast
5:35 PM 32.0 °F 26.4 °F 17.6 °F 55% 30.02 in 10.0 mi North 5.8 mph - N/A   Overcast
5:55 PM 32.0 °F 26.4 °F 17.6 °F 55% 30.03 in 10.0 mi North 5.8 mph - N/A   Overcast
6:15 PM 32.0 °F 28.7 °F 17.6 °F 55% 30.03 in 10.0 mi North 3.5 mph - N/A   Overcast
6:35 PM 30.2 °F 26.7 °F 17.6 °F 60% 30.04 in 10.0 mi North 3.5 mph - N/A   Overcast
6:55 PM 30.2 °F 23.4 °F 17.6 °F 60% 30.04 in 10.0 mi North 6.9 mph - N/A   Overcast
7:15 PM 32.0 °F 24.8 °F 19.4 °F 60% 30.05 in 10.0 mi NNE 8.1 mph - N/A   Overcast
7:35 PM 30.2 °F 20.8 °F 21.2 °F 69% 30.06 in 10.0 mi NNE 11.5 mph 18.4 mph N/A   Overcast
8:15 PM 30.2 °F 19.3 °F 21.2 °F 69% 30.06 in 10.0 mi NNE 15.0 mph 19.6 mph N/A   Overcast
8:35 PM 30.2 °F 21.3 °F 21.2 °F 69% 30.07 in 10.0 mi NNE 10.4 mph - N/A   Overcast
8:55 PM 30.2 °F 21.3 °F 21.2 °F 69% 30.07 in 10.0 mi NNE 10.4 mph 20.7 mph N/A   Overcast
9:15 PM 28.4 °F 18.5 °F 21.2 °F 74% 30.08 in 10.0 mi NNE 11.5 mph - N/A   Overcast
9:35 PM 28.4 °F 18.5 °F 21.2 °F 74% 30.09 in 10.0 mi NNE 11.5 mph 19.6 mph N/A   Overcast
9:55 PM 28.4 °F 17.5 °F 21.2 °F 74% 30.09 in 10.0 mi NNE 13.8 mph 19.6 mph N/A   Overcast
10:15 PM 28.4 °F 18.0 °F 21.2 °F 74% 30.09 in 10.0 mi NNE 12.7 mph 24.2 mph N/A   Overcast
10:35 PM 28.4 °F 18.5 °F 21.2 °F 74% 30.09 in 10.0 mi NNE 11.5 mph - N/A   Overcast
10:55 PM 28.4 °F 19.7 °F 21.2 °F 74% 30.10 in 10.0 mi North 9.2 mph - N/A   Overcast
11:15 PM 28.4 °F 19.1 °F 21.2 °F 74% 30.10 in 10.0 mi NNE 10.4 mph - N/A   Overcast
11:35 PM 28.4 °F 18.5 °F 21.2 °F 74% 30.11 in 10.0 mi North 11.5 mph 16.1 mph N/A   Overcast
11:55 PM 28.4 °F 20.4 °F 21.2 °F 74% 30.11 in 10.0 mi North 8.1 mph - N/A   Overcast